Location: Ferma
(41.9500°N, 44.5167°E)
Time: 04:24:46
(UTC+00:00)

NOSS 2-3 (D) - Pass Details

Date: 05 June 2022
Orbit: 536 x 1674 km, 63.3° (Epoch: 02 June)

Event Time Altitude Azimuth Distance (km) Brightness Sun altitude
Rises 18:43:11 0° 320° (NW) 3,572 9.1 -18.1°
Reaches altitude 10° 18:45:29 10° 317° (NW) 2,770 8.1 -18.3°
Maximum altitude 18:52:01 59° 240° (WSW) 1,377 5.2 -18.9°
Enters shadow 18:56:54 26° 171° (S) 2,403 6.0 -19.4°
